Location: Holcomb Observatory and Planetarium
(39.8415°N, 86.1714°W)
Time: 19:56:41
(UTC-04:00)

ISS - Visible Passes

Search period start: 21 October 2014 00:00
Search period end: 31 October 2014 00:00
Orbit: 413 x 416 km, 51.6° (Epoch: 21 October)

Date Brightness Start Highest point End Pass type
(mag) Time Alt. Az. Time Alt. Az. Time Alt. Az.
21 Oct -1.7 20:29:36 10° NNW 20:31:58 24° N 20:31:58 24° N visible
22 Oct -1.4 19:40:45 10° NNW 19:43:11 18° NNE 19:44:58 13° ENE visible
22 Oct -0.5 21:16:54 10° NW 21:17:51 18° NW 21:17:51 18° NW visible
23 Oct -3.0 20:27:51 10° NW 20:30:55 52° NNE 20:30:55 52° NNE visible
24 Oct -2.4 19:38:50 10° NW 19:41:54 33° NNE 19:44:04 16° E visible
24 Oct -0.5 21:15:37 10° WNW 21:16:57 19° W 21:16:57 19° W visible
25 Oct -2.7 20:26:12 10° WNW 20:29:28 53° SW 20:30:14 41° S visible
26 Oct -3.3 19:36:56 10° NW 19:40:16 82° NE 19:43:36 10° SE visible
26 Oct 0.0 21:16:08 10° WSW 21:16:28 10° SW 21:16:36 10° SW visible
27 Oct -0.6 20:25:01 10° W 20:27:25 19° SW 20:29:48 10° S visible
28 Oct -1.5 19:35:14 10° WNW 19:38:16 33° SW 19:41:17 10° SSE visible
30 Oct 0.0 19:34:33 10° WSW 19:35:54 12° SW 19:37:15 10° SSW visible
